Regional Weather Roundup
Issued by NWS Cleveland, OH

Home | Current Version | Previous Version | Text Only | Print | Product List | Glossary Off
Versions: 1 2 3 4 5 6 7 8 9 10 11 12 13 14 15 16 17 18 19 20 21 22 23 24 25 26 27 28 29 30 31 32 33 34 35 36 37 38 39 40 41 42 43 44 45 46 47 48 49 50

000
ASUS41 KCLE 031910
RWRCLE
OHIO REGIONAL WEATHER ROUNDUP
NATIONAL WEATHER SERVICE CLEVELAND, OH
300 PM EDT MON AUG 03 2015

NOTE: "FAIR" INDICATES FEW OR NO CLOUDS BELOW 12,000 FEET WITH NO
SIGNIFICANT WEATHER AND/OR OBSTRUCTIONS TO VISIBILITY.

OHZ001>008-015>018-024>027-034-035-043-044-032000-
   NORTHWEST OHIO

CITY           SKY/WX    TMP DP  RH WIND       PRES   REMARKS
DEFIANCE       SUNNY     82  62  50 NW9       29.82F
FINDLAY        PTSUNNY   80  67  64 SW10      29.82F
TOLEDO EXPRESS MOSUNNY   80  63  55 W12       29.80F
TOLEDO EXEC    MOSUNNY   82  61  48 W15       29.81F
LIMA           MOSUNNY   79  69  71 W10       29.84F
$$

OHZ009>014-019>023-028>033-038-089-032000-
   NORTHEAST OHIO

CITY           SKY/WX    TMP DP  RH WIND       PRES   REMARKS
CLE-HOPKINS    PTSUNNY   82  64  54 NW10      29.83F
CLE-LAKEFRONT  MOSUNNY   77  66  68 W14       29.81S
CUY CO. ARPT   NOT AVBL
LORAIN-ELYRIA  MOSUNNY   79  63  57 NW13      29.83S
ASHTABULA      MOSUNNY   76  63  64 W10       29.84S
AKRON-CANTON   MOSUNNY   83  63  50 NW14G22   29.83S
WOOSTER        PTSUNNY   79  64  60 W13G18    29.84S
MANSFIELD      PTSUNNY   77  67  71 W12G21    29.86S
YOUNGSTOWN     MOSUNNY   83  61  47 W9        29.82F
$$

OHZ042-051>053-060>062-070>072-077>081-032000-
  SOUTHWEST OHIO

CITY           SKY/WX    TMP DP  RH WIND       PRES   REMARKS
CINC-COVINGTON SUNNY     83  68  60 SW10      29.87F
CINC-LUNKEN    SUNNY     84  69  60 SW10      29.86S
HAMILTON       SUNNY     85  69  58 VRB7      29.87S
DAYTON         PTSUNNY   81  70  69 SW17      29.87S
WRIGHT-PAT AFB SUNNY     83  69  63 SW13G20   29.85F
DAYTON GENERAL SUNNY     83  66  56 SW15G22   29.86S
WILMINGTON     SUNNY     82  66  58 SW17      29.86F
$$

OHZ036-037-039>041-045>050-054>059-063>069-073>076-082>088-032000-
  CENTRAL AND SOUTHEAST OHIO

CITY           SKY/WX    TMP DP  RH WIND       PRES   REMARKS
COLUMBUS       PTSUNNY   83  64  52 SW17G25   29.84S
OSU AIRPORT    MOSUNNY   83  67  58 SW16G25   29.84S
BOLTON FIELD   MOSUNNY   82  70  65 SW12G20   29.86S
RICKENBACK AFB PTSUNNY   82  67  60 SW16      29.84S
NEWARK         MOSUNNY   86  65  49 SW14G22   29.84S
MARION         PTSUNNY   80  65  59 W13       29.85S
LANCASTER      MOSUNNY   84  66  54 W16G24    29.86S
ZANESVILLE     MOSUNNY   86  61  42 W15       29.84F
NEW PHILLY     PTSUNNY   81  67  62 W9G18     29.84S
$$



USA.gov is the U.S. government's official web portal to all federal, state and local government web resources and services.